• Join FlightAware (Why Join?)
  • Login
  • US Flag 
09:30AM EDT


 

Airport Tracker/Info


-or-


 

Live Flight TrackerFlight Track Log ✈ SWA407 ✈ 05-May-2013 ✈ KSAN - KLAS

Flight Track Log - Related Links

Times and Time Zones

All times are in EDT time to prevent confusion due to time zone crossing. See the SWA407 flight status page for this flight to view local times or setup timezone preferences in your user account.

Time Position Orientation Groundspeed Altitude Reporting Facility
EDT Latitude Longitude Course Direction KTS MPH feet Rate Location/Type
01:07AM 32.7931 -117.2931 311° West 247 284 6,600  Level Los Angeles Center
01:08AM 32.8381 -117.3653 307° West 267 307 11,800 4,440 Climbing Los Angeles Center
01:09AM 32.8864 -117.4394 308° West 280 322 15,800 4,200 Climbing Los Angeles Center
01:10AM 32.9678 -117.5144 322° Northwest 321 369 20,500 3,480 Climbing Los Angeles Center
01:11AM 33.0542 -117.5572 337° Northwest 360 414 22,900 3,120 Climbing Los Angeles Center
01:12AM 33.1608 -117.5806 350° North 388 447 26,900 2,700 Climbing Los Angeles Center
01:13AM 33.2642 -117.6047 349° North 384 442 29,000 900 Climbing Los Angeles Center
01:14AM 33.3875 -117.6319 350° North 378 435 29,000 -120 Level Los Angeles Center
01:15AM 33.4922 -117.6558 349° North 382 440 28,800 -420 Descending Los Angeles Center
01:16AM 33.6006 -117.6786 350° North 391 450 28,200 -600 Descending Los Angeles Center
01:17AM 33.7083 -117.7019 350° North 396 456 27,600 -600 Descending Los Angeles Center
01:18AM 33.8425 -117.7053 359° North 422 486 27,000 -300 Descending Los Angeles Center
01:19AM 33.9381 -117.6119 39° Northeast 444 511 27,000  Level Los Angeles Center
01:20AM 34.0339 -117.5178 39° Northeast 445 512 27,000  Level Los Angeles Center
01:21AM 34.1283 -117.4231 40° Northeast 444 511 27,000  Level Los Angeles Center
01:22AM 34.2242 -117.3264 40° Northeast 449 517 27,000  Level Los Angeles Center
01:23AM 34.3222 -117.2289 39° Northeast 455 524 27,000  Level Los Angeles Center
01:24AM 34.4211 -117.1281 40° Northeast 455 524 27,000  Level Los Angeles Center
01:25AM 34.5150 -117.0325 40° Northeast 448 516 27,000  Level Los Angeles Center
01:26AM 34.6083 -116.9386 40° Northeast 441 507 27,000  Level Los Angeles Center
01:27AM 34.7003 -116.8433 40° Northeast 438 504 27,000 -120 Level Los Angeles Center
01:28AM 34.8117 -116.7303 40° Northeast 438 504 26,800 -600 Descending Los Angeles Center
01:29AM 34.9047 -116.6339 40° Northeast 439 505 25,800 -1,020 Descending Los Angeles Center
01:30AM 34.9958 -116.5372 41° Northeast 439 505 24,800 -900 Descending Los Angeles Center
01:31AM 35.0783 -116.4322 46° Northeast 433 498 24,000 -420 Descending Los Angeles Center
01:32AM 35.1564 -116.3328 46° Northeast 421 484 24,000  Level Los Angeles Center
01:33AM 35.2361 -116.2328 46° Northeast 415 478 24,000 -300 Level Los Angeles Center
01:34AM 35.3172 -116.1306 46° Northeast 419 482 23,500 -1,440 Descending Los Angeles Center
01:35AM 35.3944 -116.0317 46° Northeast 408 470 21,100 -2,460 Descending Los Angeles Center
01:36AM 35.4706 -115.9353 46° Northeast 398 458 18,600 -2,520 Descending Los Angeles Center
01:37AM 35.5508 -115.8361 45° Northeast 383 441 16,000 -2,760 Descending Los Angeles Center
01:38AM 35.5744 -115.8053 47° Northeast 373 429 15,100 -2,220 Descending Los Angeles Center
01:39AM 35.6194 -115.7489 46° Northeast 364 419 13,800 -1,800 Descending Los Angeles Center
01:39AM 35.6525 -115.7064 46° Northeast 354 407 13,100 -840 Descending Los Angeles Center
01:40AM 35.6819 -115.6586 53° Northeast 352 405 13,000 -1,200 Descending Los Angeles Center
01:41AM 35.7531 -115.5464 52° Northeast 349 402 11,100 -1,560 Descending Los Angeles Center
01:42AM 35.8092 -115.4575 52° Northeast 341 392 9,900 -1,260 Descending Los Angeles Center
01:43AM 35.8600 -115.3786 51° Northeast 322 371 8,600 -1,080 Descending Los Angeles Center
01:44AM 35.9086 -115.3031 52° Northeast 302 348 7,700 -1,200 Descending Los Angeles Center
01:45AM 35.9764 -115.3147 352° North 279 321 6,200 -1,260 Descending Los Angeles Center
01:46AM 36.0439 -115.3117 North 260 299 5,200 -1,080 Descending Los Angeles Center
01:47AM 36.0722 -115.2706 50° Northeast 172 198 4,100 -1,080 Descending Los Angeles Center
01:47AM 36.0744 -115.2342 86° East 137 158 3,300 -720 Descending Los Angeles Center
01:48AM 36.0733 -115.1789 91° East 145 167 2,800 -540 Descending Los Angeles Center
01:50AM 36.0801 -115.1523 90° East  Level Estimated
01:57AM 36.0801 -115.1523 270° West  Level Estimated